Valentine, NE

11:02 PM CST on December 09, 2019 (GMT -0600)
Miller Field

Weather History for KVTN - October, 2019

Change the Weather History Date:

Sunday, October 27, 2019

  Actual Average Record
Temperature  
Mean Temperature 28 °F 44 °F  
Max Temperature 35 °F 58 °F 85 °F (1983)
Min Temperature 21 °F 30 °F 1 °F (1925)
Degree Days  
Heating Degree Days 37 21  
Month to date heating degree days 540 430  
Since 1 July heating degree days 593 615  
Cooling Degree Days 0 0  
Month to date cooling degree days 0 1  
Year to date cooling degree days 930 818  
Moisture  
Dew Point 22 °F    
Average Humidity 71    
Maximum Humidity 82    
Minimum Humidity 45    
Precipitation  
Precipitation T in 0.03 in 0.30 in (1926)
Month to date precipitation 1.17 1.13  
Year to date precipitation 28.07 18.88  
Snow  
Snow T in 0.00 in 3.40 in (1925)
Month to date snowfall 1.9 1.1  
Since 1 July snowfall 1.9 1.8  
Since 1 September snowfall 1.9 1.8  
Snow Depth 0.00 in    
Sea Level Pressure  
Sea Level Pressure 30.14 in    
Wind  
Wind Speed 15 mph ()    
Max Wind Speed 24 mph    
Max Gust Speed 37 mph    
Visibility 8.5 miles    
Events Snow    
T = Trace of Precipitation, MM = Missing Value Source: Averaged Metar Reports

Daily Weather History Graph

Daily Weather History Graph

Search for Another Location

Airport or City:

Astronomy

Oct. 27, 2019 Rise Set
Actual Time 8:09 AM CDT 6:41 PM CDT
Civil Twilight 7:40 AM CDT 7:10 PM CDT
Nautical Twilight 7:07 AM CDT 7:43 PM CDT
Astronomical Twilight 6:34 AM CDT 8:16 PM CDT
Moon 7:18 AM CDT (10/27) 6:53 PM CDT (10/27)
Length of Visible Light 11h 29m
Length of Day
10h 31m
Waning Crescent, 0% of the Moon is Illuminated
Oct 27
Waning Crescent
Oct 27
New
Nov 4
First Quarter
Nov 12
Full
Nov 19
Last Quarter

Hourly Weather History & Observations

Time (CDT) Temp. Windchill Dew Point Humidity Pressure Visibility Wind Dir Wind Speed Gust Speed Precip Events Conditions
12:39 AM 35.1 °F 25.9 °F 30.0 °F 82% 29.98 in 6.0 mi NNW 13.8 mph - 0.00 in Snow Light Snow
12:52 AM 35.1 °F 24.5 °F 30.0 °F 82% 29.99 in 6.0 mi NNW 18.4 mph 29.9 mph 0.00 in Snow Light Snow
1:09 AM 35.1 °F 24.5 °F 30.0 °F 82% 29.99 in 2.5 mi NNW 18.4 mph 28.8 mph 0.00 in Snow Light Snow
1:21 AM 34.0 °F 22.7 °F 28.9 °F 82% 29.99 in 4.0 mi NNW 19.6 mph 33.4 mph 0.00 in Snow Light Snow
1:28 AM 34.0 °F 22.4 °F 28.0 °F 79% 29.99 in 8.0 mi NNW 20.7 mph 35.7 mph 0.00 in Snow Light Snow
1:48 AM 33.8 °F 22.8 °F 28.4 °F 81% 29.99 in 4.0 mi NNW 18.4 mph 28.8 mph 0.00 in Snow Light Snow
1:52 AM 34.0 °F 24.6 °F 28.9 °F 82% 30.03 in 4.0 mi NNW 13.8 mph 25.3 mph 0.00 in Snow Light Snow
1:59 AM 33.1 °F 20.3 °F 28.0 °F 82% 30.00 in 1.8 mi NNW 24.2 mph 36.8 mph 0.00 in Snow Light Snow
2:05 AM 33.1 °F 21.9 °F 28.0 °F 82% 30.01 in 2.0 mi North 18.4 mph 36.8 mph 0.00 in Snow Light Snow
2:14 AM 33.1 °F 22.6 °F 28.0 °F 82% 30.01 in 9.0 mi North 16.1 mph 28.8 mph 0.00 in   Overcast
2:23 AM 32.0 °F 20.5 °F 27.0 °F 82% 30.01 in 10.0 mi NNW 18.4 mph 31.1 mph 0.00 in   Overcast
2:30 AM 32.0 °F 20.8 °F 27.0 °F 82% 30.01 in 10.0 mi NNW 17.3 mph 32.2 mph 0.00 in   Overcast
2:42 AM 32.0 °F 21.6 °F 26.1 °F 79% 30.01 in 10.0 mi NNW 15.0 mph 28.8 mph 0.00 in   Overcast
2:52 AM 32.0 °F 19.8 °F 26.1 °F 79% 30.06 in 10.0 mi NNW 20.7 mph 26.5 mph 0.00 in   Overcast
3:15 AM 32.0 °F 21.2 °F 26.1 °F 79% 30.02 in 9.0 mi NNW 16.1 mph 28.8 mph N/A   Overcast
3:52 AM 30.9 °F 19.4 °F 25.0 °F 79% 30.09 in 10.0 mi NNW 17.3 mph 32.2 mph N/A   Overcast
4:52 AM 28.9 °F 18.2 °F 24.1 °F 82% 30.12 in 3.0 mi NNW 13.8 mph 25.3 mph 0.00 in Snow Light Snow
5:52 AM 28.0 °F 14.9 °F 21.0 °F 75% 30.14 in 10.0 mi NNW 19.6 mph 29.9 mph 0.00 in   Overcast
6:15 AM 28.0 °F 16.5 °F 21.0 °F 75% 30.09 in 10.0 mi NNW 15.0 mph 26.5 mph N/A   Overcast
6:47 AM 28.4 °F 17.5 °F 19.4 °F 69% 30.10 in 10.0 mi NNW 13.8 mph 27.6 mph N/A   Overcast
6:52 AM 28.0 °F 16.1 °F 19.9 °F 72% 30.17 in 10.0 mi NNW 16.1 mph - N/A   Overcast
7:03 AM 28.0 °F 17.5 °F 21.0 °F 75% 30.10 in 10.0 mi NNW 12.7 mph - N/A   Overcast
7:40 AM 27.0 °F 17.3 °F 19.9 °F 75% 30.11 in 10.0 mi NNW 10.4 mph - N/A   Overcast
7:52 AM 27.0 °F 18.0 °F 19.9 °F 75% 30.19 in 10.0 mi NNW 9.2 mph - N/A   Overcast
8:52 AM 28.0 °F 17.5 °F 19.0 °F 69% 30.21 in 10.0 mi NNW 12.7 mph - N/A   Overcast
9:52 AM 30.0 °F 18.7 °F 19.0 °F 64% 30.24 in 10.0 mi NNW 16.1 mph 27.6 mph N/A   Overcast
10:52 AM 32.0 °F 20.5 °F 19.0 °F 59% 30.26 in 10.0 mi NNW 18.4 mph 31.1 mph N/A   Partly Cloudy
11:52 AM 32.0 °F 20.8 °F 18.0 °F 56% 30.27 in 10.0 mi NNW 17.3 mph 35.7 mph N/A   Overcast
12:52 PM 33.1 °F 20.3 °F 17.1 °F 52% 30.27 in 10.0 mi NNW 24.2 mph 32.2 mph N/A   Scattered Clouds
1:52 PM 32.0 °F 18.9 °F 14.0 °F 48% 30.25 in 10.0 mi North 24.2 mph 32.2 mph N/A   Scattered Clouds
2:52 PM 30.9 °F 19.1 °F 15.1 °F 52% 30.26 in 10.0 mi NNW 18.4 mph 29.9 mph N/A   Mostly Cloudy
3:52 PM 30.0 °F 19.5 °F 16.0 °F 56% 30.26 in 10.0 mi NW 13.8 mph 26.5 mph N/A   Mostly Cloudy
4:52 PM 30.9 °F 19.8 °F 16.0 °F 54% 30.26 in 10.0 mi NW 16.1 mph 23.0 mph N/A   Scattered Clouds
5:52 PM 30.0 °F 18.3 °F 12.9 °F 49% 30.25 in 10.0 mi NW 17.3 mph 26.5 mph N/A   Mostly Cloudy
6:52 PM 28.0 °F 20.0 °F 14.0 °F 56% 30.27 in 10.0 mi NW 8.1 mph - N/A   Mostly Cloudy
7:52 PM 26.1 °F 21.9 °F 15.1 °F 63% 30.28 in 10.0 mi West 3.5 mph - N/A   Mostly Cloudy
8:52 PM 26.1 °F 17.6 °F 15.1 °F 63% 30.30 in 10.0 mi WNW 8.1 mph - N/A   Mostly Cloudy
9:52 PM 21.9 °F 13.4 °F 14.0 °F 72% 30.32 in 10.0 mi WNW 6.9 mph - N/A   Clear
10:52 PM 21.0 °F 13.4 °F 14.0 °F 74% 30.33 in 10.0 mi WNW 5.8 mph - N/A   Clear
11:52 PM 23.0 °F 13.1 °F 12.9 °F 65% 30.30 in 10.0 mi NW 9.2 mph - N/A   Overcast